Time,TemperatureF,DewpointF,PressureIn,WindDirection,WindDirectionDegrees,WindSpeedMPH,WindSpeedGustMPH,Humidity,HourlyPrecipIn,Conditions,Clouds,dailyrainin,SoftwareType,DateUTC
2013-02-26 00:00:00,23.5,19.1,30.19,ESE,112,0.0,0.0,83,0.00,CLR,,0.00,WeatherDisplay:10.37,2013-02-26 05:00:00,
2013-02-26 00:05:00,23.4,19.0,30.19,ESE,112,1.3,1.3,83,0.00,CLR,,0.00,WeatherDisplay:10.37,2013-02-26 05:05:00,
2013-02-26 00:10:00,23.5,19.1,30.19,ESE,112,0.0,0.0,83,0.00,CLR,,0.00,WeatherDisplay:10.37,2013-02-26 05:10:00,
2013-02-26 00:15:00,23.7,19.3,30.19,SE,135,0.0,0.1,83,0.00,CLR,,0.00,WeatherDisplay:10.37,2013-02-26 05:15:00,
2013-02-26 00:20:00,23.7,19.3,30.19,SSE,158,0.0,0.1,83,0.00,CLR,,0.00,WeatherDisplay:10.37,2013-02-26 05:20:00,
2013-02-26 00:25:00,23.7,19.3,30.19,SE,135,0.0,0.0,83,0.00,CLR,,0.00,WeatherDisplay:10.37,2013-02-26 05:25:00,
2013-02-26 00:30:00,23.7,19.3,30.19,NE,45,0.0,0.0,83,0.00,CLR,,0.00,WeatherDisplay:10.37,2013-02-26 05:30:00,
2013-02-26 00:35:00,23.7,19.3,30.19,ENE,68,0.0,0.0,83,0.00,CLR,,0.00,WeatherDisplay:10.37,2013-02-26 05:35:00,
2013-02-26 00:40:00,23.9,19.5,30.21,SE,135,0.0,0.0,83,0.00,CLR,,0.00,WeatherDisplay:10.37,2013-02-26 05:40:00,
2013-02-26 00:45:00,23.7,19.3,30.21,NNE,22,0.0,0.0,83,0.00,CLR,,0.00,WeatherDisplay:10.37,2013-02-26 05:45:00,
2013-02-26 00:50:00,23.7,19.3,30.21,NNE,22,0.0,0.0,83,0.00,CLR,,0.00,WeatherDisplay:10.37,2013-02-26 05:50:00,
2013-02-26 00:55:00,23.7,19.3,30.21,NW,315,0.0,0.0,83,0.00,CLR,,0.00,WeatherDisplay:10.37,2013-02-26 05:55:00,
2013-02-26 01:00:00,23.4,19.0,30.21,ESE,112,0.0,0.0,83,0.00,CLR,,0.00,WeatherDisplay:10.37,2013-02-26 06:00:00,
2013-02-26 01:05:00,23.2,18.8,30.21,East,90,0.0,0.0,83,0.00,CLR,,0.00,WeatherDisplay:10.37,2013-02-26 06:05:00,
2013-02-26 01:10:00,23.2,18.8,30.21,WSW,248,0.0,0.0,83,0.00,CLR,,0.00,WeatherDisplay:10.37,2013-02-26 06:10:00,
2013-02-26 01:15:00,23.4,19.0,30.21,WSW,248,0.0,0.0,83,0.00,CLR,,0.00,WeatherDisplay:10.37,2013-02-26 06:15:00,
2013-02-26 01:20:00,23.4,19.0,30.22,WSW,248,0.0,0.0,83,0.00,CLR,,0.00,WeatherDisplay:10.37,2013-02-26 06:20:00,
2013-02-26 01:25:00,23.4,19.0,30.22,WSW,248,0.0,0.0,83,0.00,CLR,,0.00,WeatherDisplay:10.37,2013-02-26 06:25:00,
2013-02-26 01:30:00,23.4,19.0,30.22,NNW,338,0.0,0.0,83,0.00,CLR,,0.00,WeatherDisplay:10.37,2013-02-26 06:30:00,
2013-02-26 01:35:00,23.4,19.0,30.22,ESE,112,0.0,0.0,83,0.00,CLR,,0.00,WeatherDisplay:10.37,2013-02-26 06:35:00,
2013-02-26 01:40:00,23.4,19.0,30.22,ENE,68,0.0,0.0,83,0.00,CLR,,0.00,WeatherDisplay:10.37,2013-02-26 06:40:00,
2013-02-26 01:45:00,23.4,19.0,30.22,ENE,68,0.0,0.0,83,0.00,CLR,,0.00,WeatherDisplay:10.37,2013-02-26 06:45:00,
2013-02-26 01:50:00,23.4,19.0,30.22,WSW,248,0.0,0.0,83,0.00,CLR,,0.00,WeatherDisplay:10.37,2013-02-26 06:50:00,
2013-02-26 01:55:00,23.4,19.0,30.22,ENE,68,1.1,0.0,83,0.00,CLR,,0.00,WeatherDisplay:10.37,2013-02-26 06:55:00,
2013-02-26 02:00:00,23.4,19.0,30.20,NNE,22,0.0,0.0,83,0.00,CLR,,0.00,WeatherDisplay:10.37,2013-02-26 07:00:00,
2013-02-26 02:05:00,23.4,19.0,30.20,ESE,112,0.0,0.0,83,0.00,CLR,,0.00,WeatherDisplay:10.37,2013-02-26 07:05:00,
2013-02-26 02:10:00,23.4,19.0,30.20,SE,135,0.0,0.0,83,0.00,CLR,,0.00,WeatherDisplay:10.37,2013-02-26 07:10:00,
2013-02-26 02:15:00,23.5,19.1,30.20,SE,135,0.0,0.0,83,0.00,CLR,,0.00,WeatherDisplay:10.37,2013-02-26 07:15:00,
2013-02-26 02:20:00,23.5,19.1,30.20,ENE,68,0.0,0.0,83,0.00,CLR,,0.00,WeatherDisplay:10.37,2013-02-26 07:20:00,
2013-02-26 02:25:00,23.5,19.1,30.20,East,90,2.3,2.3,83,0.00,CLR,,0.00,WeatherDisplay:10.37,2013-02-26 07:25:00,
2013-02-26 02:30:00,23.4,19.0,30.20,SSW,202,0.0,0.2,83,0.00,CLR,,0.00,WeatherDisplay:10.37,2013-02-26 07:30:00,
2013-02-26 02:35:00,23.2,18.8,30.20,East,90,1.1,1.1,83,0.00,CLR,,0.00,WeatherDisplay:10.37,2013-02-26 07:35:00,
2013-02-26 02:40:00,23.2,18.8,30.20,NE,45,2.0,2.0,83,0.00,CLR,,0.00,WeatherDisplay:10.37,2013-02-26 07:40:00,
2013-02-26 02:45:00,23.2,18.8,30.20,ESE,112,2.3,2.3,83,0.00,CLR,,0.00,WeatherDisplay:10.37,2013-02-26 07:45:00,
2013-02-26 02:50:00,23.4,19.0,30.20,ESE,112,2.3,2.3,83,0.00,CLR,,0.00,WeatherDisplay:10.37,2013-02-26 07:50:00,
2013-02-26 02:55:00,23.4,19.0,30.20,NNE,22,1.8,1.8,83,0.00,CLR,,0.00,WeatherDisplay:10.37,2013-02-26 07:55:00,
2013-02-26 03:00:00,23.4,19.0,30.18,ESE,112,2.3,2.3,83,0.00,CLR,,0.00,WeatherDisplay:10.37,2013-02-26 08:00:00,
2013-02-26 03:05:00,23.2,18.8,30.18,ESE,112,1.1,0.0,83,0.00,CLR,,0.00,WeatherDisplay:10.37,2013-02-26 08:05:00,
2013-02-26 03:10:00,23.2,18.8,30.18,ESE,112,1.6,1.6,83,0.00,CLR,,0.00,WeatherDisplay:10.37,2013-02-26 08:10:00,
2013-02-26 03:16:00,23.4,19.0,30.18,ENE,68,2.3,2.3,83,0.00,CLR,,0.00,WeatherDisplay:10.37,2013-02-26 08:16:00,
2013-02-26 03:21:00,23.2,18.8,30.19,SE,135,1.1,1.1,83,0.00,CLR,,0.00,WeatherDisplay:10.37,2013-02-26 08:21:00,
2013-02-26 03:26:00,23.2,18.8,30.19,ESE,112,1.1,1.1,83,0.00,CLR,,0.00,WeatherDisplay:10.37,2013-02-26 08:26:00,
2013-02-26 03:31:00,23.2,18.8,30.19,East,90,0.0,0.3,83,0.00,CLR,,0.00,WeatherDisplay:10.37,2013-02-26 08:31:00,
2013-02-26 03:36:00,23.2,18.8,30.19,East,90,1.1,1.1,83,0.00,CLR,,0.00,WeatherDisplay:10.37,2013-02-26 08:36:00,
2013-02-26 03:41:00,23.4,19.0,30.18,ESE,112,1.1,1.1,83,0.00,CLR,,0.00,WeatherDisplay:10.37,2013-02-26 08:41:00,
2013-02-26 03:46:00,23.4,19.0,30.18,WNW,292,0.0,0.0,83,0.00,CLR,,0.00,WeatherDisplay:10.37,2013-02-26 08:46:00,
2013-02-26 03:51:00,23.5,19.1,30.18,ENE,68,1.1,1.1,83,0.00,CLR,,0.00,WeatherDisplay:10.37,2013-02-26 08:51:00,
2013-02-26 03:56:00,23.5,19.1,30.18,ESE,112,0.0,0.0,83,0.00,CLR,,0.00,WeatherDisplay:10.37,2013-02-26 08:56:00,
2013-02-26 04:01:00,23.4,19.0,30.17,ENE,68,0.0,0.1,83,0.00,CLR,,0.00,WeatherDisplay:10.37,2013-02-26 09:01:00,
2013-02-26 04:06:00,23.4,19.0,30.17,SSW,202,2.3,2.3,83,0.00,CLR,,0.00,WeatherDisplay:10.37,2013-02-26 09:06:00,
2013-02-26 04:11:00,23.4,19.0,30.17,SSE,158,1.1,1.1,83,0.00,CLR,,0.00,WeatherDisplay:10.37,2013-02-26 09:11:00,
2013-02-26 04:16:00,23.4,19.0,30.17,ENE,68,2.3,2.3,83,0.00,CLR,,0.00,WeatherDisplay:10.37,2013-02-26 09:16:00,
2013-02-26 04:21:00,23.4,19.0,30.18,South,180,2.3,2.3,83,0.00,CLR,,0.00,WeatherDisplay:10.37,2013-02-26 09:21:00,
2013-02-26 04:26:00,23.4,19.0,30.18,ESE,112,0.0,0.3,83,0.00,CLR,,0.00,WeatherDisplay:10.37,2013-02-26 09:26:00,
2013-02-26 04:31:00,23.4,19.0,30.18,ESE,112,0.0,0.0,83,0.00,CLR,,0.00,WeatherDisplay:10.37,2013-02-26 09:31:00,
2013-02-26 04:36:00,23.0,18.6,30.18,SE,135,0.0,0.0,83,0.00,CLR,,0.00,WeatherDisplay:10.37,2013-02-26 09:36:00,
2013-02-26 04:41:00,23.0,18.6,30.17,SE,135,0.0,0.0,83,0.00,CLR,,0.00,WeatherDisplay:10.37,2013-02-26 09:41:00,
2013-02-26 04:46:00,23.0,18.6,30.17,ESE,112,2.3,2.3,83,0.00,CLR,,0.00,WeatherDisplay:10.37,2013-02-26 09:46:00,
2013-02-26 04:51:00,22.8,18.4,30.17,ESE,112,0.0,0.0,83,0.00,CLR,,0.00,WeatherDisplay:10.37,2013-02-26 09:51:00,
2013-02-26 04:56:00,22.8,18.4,30.17,ENE,68,0.0,0.0,83,0.00,CLR,,0.00,WeatherDisplay:10.37,2013-02-26 09:56:00,
2013-02-26 05:01:00,23.0,18.6,30.18,NNE,22,0.0,0.0,83,0.00,CLR,,0.00,WeatherDisplay:10.37,2013-02-26 10:01:00,
2013-02-26 05:06:00,22.8,18.4,30.18,ESE,112,0.0,0.0,83,0.00,CLR,,0.00,WeatherDisplay:10.37,2013-02-26 10:06:00,
2013-02-26 05:11:00,22.8,18.4,30.18,East,90,0.0,0.0,83,0.00,CLR,,0.00,WeatherDisplay:10.37,2013-02-26 10:11:00,
2013-02-26 05:16:00,22.8,18.4,30.18,East,90,0.0,0.0,83,0.00,CLR,,0.00,WeatherDisplay:10.37,2013-02-26 10:16:00,
2013-02-26 05:21:00,22.8,18.4,30.17,SSE,158,0.0,0.0,83,0.00,CLR,,0.00,WeatherDisplay:10.37,2013-02-26 10:21:00,
2013-02-26 05:26:00,23.0,18.6,30.17,NW,315,0.0,0.0,83,0.00,CLR,,0.00,WeatherDisplay:10.37,2013-02-26 10:26:00,
2013-02-26 05:31:00,22.8,18.4,30.17,ENE,68,2.3,2.3,83,0.00,CLR,,0.00,WeatherDisplay:10.37,2013-02-26 10:31:00,
2013-02-26 05:36:00,22.8,18.4,30.17,ESE,112,2.3,2.3,83,0.00,CLR,,0.00,WeatherDisplay:10.37,2013-02-26 10:36:00,
2013-02-26 05:41:00,22.8,18.4,30.16,SE,135,0.0,0.5,83,0.00,CLR,,0.00,WeatherDisplay:10.37,2013-02-26 10:41:00,
2013-02-26 05:46:00,22.6,18.3,30.16,SE,135,0.0,0.3,83,0.00,CLR,,0.00,WeatherDisplay:10.37,2013-02-26 10:46:00,
2013-02-26 05:51:00,22.6,18.3,30.16,ENE,68,1.1,1.1,83,0.00,CLR,,0.00,WeatherDisplay:10.37,2013-02-26 10:51:00,
2013-02-26 05:56:00,22.6,18.3,30.16,SE,135,1.1,0.0,83,0.00,CLR,,0.00,WeatherDisplay:10.37,2013-02-26 10:56:00,
2013-02-26 06:01:00,22.5,18.1,30.15,SSE,158,1.1,1.1,83,0.00,CLR,,0.00,WeatherDisplay:10.37,2013-02-26 11:01:00,
2013-02-26 06:06:00,22.5,18.1,30.15,East,90,0.0,0.2,83,0.00,CLR,,0.00,WeatherDisplay:10.37,2013-02-26 11:06:00,
2013-02-26 06:11:00,22.5,18.1,30.15,ESE,112,2.3,2.3,83,0.00,CLR,,0.00,WeatherDisplay:10.37,2013-02-26 11:11:00,
2013-02-26 06:16:00,22.5,18.1,30.15,ESE,112,1.1,1.1,83,0.00,CLR,,0.00,WeatherDisplay:10.37,2013-02-26 11:16:00,
2013-02-26 06:21:00,22.5,18.1,30.15,ESE,112,0.0,0.3,83,0.00,CLR,,0.00,WeatherDisplay:10.37,2013-02-26 11:21:00,
2013-02-26 06:26:00,22.5,18.1,30.15,ESE,112,1.1,1.1,83,0.00,CLR,,0.00,WeatherDisplay:10.37,2013-02-26 11:26:00,
2013-02-26 06:31:00,22.6,18.3,30.15,ESE,112,2.3,2.3,83,0.00,CLR,,0.00,WeatherDisplay:10.37,2013-02-26 11:31:00,
2013-02-26 06:36:00,22.6,18.3,30.15,ESE,112,1.1,1.1,83,0.00,CLR,,0.00,WeatherDisplay:10.37,2013-02-26 11:36:00,
2013-02-26 06:41:00,22.6,18.3,30.13,SSE,158,0.0,0.0,83,0.00,CLR,,0.00,WeatherDisplay:10.37,2013-02-26 11:41:00,
2013-02-26 06:46:00,22.5,18.1,30.13,ESE,112,0.0,0.1,83,0.00,CLR,,0.00,WeatherDisplay:10.37,2013-02-26 11:46:00,
2013-02-26 06:51:00,22.3,17.9,30.13,ENE,68,0.0,0.2,83,0.00,CLR,,0.00,WeatherDisplay:10.37,2013-02-26 11:51:00,
2013-02-26 06:56:00,22.6,18.3,30.13,East,90,2.3,2.3,83,0.00,CLR,,0.00,WeatherDisplay:10.37,2013-02-26 11:56:00,
2013-02-26 07:01:00,22.6,18.3,30.14,ENE,68,3.5,3.5,83,0.00,CLR,,0.00,WeatherDisplay:10.37,2013-02-26 12:01:00,
2013-02-26 07:06:00,22.8,18.4,30.14,ENE,68,0.0,1.1,83,0.00,CLR,,0.00,WeatherDisplay:10.37,2013-02-26 12:06:00,
2013-02-26 07:11:00,23.0,18.6,30.14,ESE,112,0.0,0.1,83,0.00,CLR,,0.00,WeatherDisplay:10.37,2013-02-26 12:11:00,
2013-02-26 07:16:00,23.4,19.0,30.14,ESE,112,0.0,0.1,83,0.00,CLR,,0.00,WeatherDisplay:10.37,2013-02-26 12:16:00,
2013-02-26 07:21:00,23.5,19.1,30.13,East,90,2.3,0.0,83,0.00,CLR,,0.00,WeatherDisplay:10.37,2013-02-26 12:21:00,
2013-02-26 07:26:00,23.7,19.3,30.13,East,90,2.3,2.3,83,0.00,CLR,,0.00,WeatherDisplay:10.37,2013-02-26 12:26:00,
2013-02-26 07:31:00,24.1,19.7,30.13,ESE,112,3.5,3.5,83,0.00,CLR,,0.00,WeatherDisplay:10.37,2013-02-26 12:31:00,
2013-02-26 07:36:00,24.4,20.0,30.13,SE,135,2.3,2.3,83,0.00,CLR,,0.00,WeatherDisplay:10.37,2013-02-26 12:36:00,
2013-02-26 07:41:00,24.8,20.4,30.13,WSW,248,3.5,3.5,83,0.00,CLR,,0.00,WeatherDisplay:10.37,2013-02-26 12:41:00,
2013-02-26 07:46:00,25.2,20.7,30.13,ESE,112,2.3,2.3,83,0.00,CLR,,0.00,WeatherDisplay:10.37,2013-02-26 12:46:00,
2013-02-26 07:51:00,25.5,20.8,30.13,ESE,112,2.3,2.3,82,0.00,CLR,,0.00,WeatherDisplay:10.37,2013-02-26 12:51:00,
2013-02-26 07:56:00,25.7,21.0,30.13,ESE,112,3.5,3.5,82,0.00,CLR,,0.00,WeatherDisplay:10.37,2013-02-26 12:56:00,
2013-02-26 08:01:00,26.1,21.3,30.14,ENE,68,2.3,2.3,82,0.00,CLR,,0.00,WeatherDisplay:10.37,2013-02-26 13:01:00,
2013-02-26 08:06:00,26.4,21.7,30.14,ESE,112,1.1,1.1,82,0.00,CLR,,0.00,WeatherDisplay:10.37,2013-02-26 13:06:00,
2013-02-26 08:11:00,26.8,21.7,30.14,SE,135,1.1,1.1,81,0.00,CLR,,0.00,WeatherDisplay:10.37,2013-02-26 13:11:00,
2013-02-26 08:16:00,27.0,21.9,30.14,ESE,112,0.0,0.3,81,0.00,CLR,,0.00,WeatherDisplay:10.37,2013-02-26 13:16:00,
2013-02-26 08:21:00,27.5,22.4,30.14,ESE,112,2.3,2.3,81,0.00,CLR,,0.00,WeatherDisplay:10.37,2013-02-26 13:21:00,
2013-02-26 08:26:00,28.0,23.0,30.14,SW,225,2.3,2.3,81,0.00,CLR,,0.00,WeatherDisplay:10.37,2013-02-26 13:26:00,
2013-02-26 08:31:00,28.6,23.2,30.14,East,90,2.3,2.3,80,0.00,CLR,,0.00,WeatherDisplay:10.37,2013-02-26 13:31:00,
2013-02-26 08:37:00,29.1,23.7,30.14,ESE,112,3.5,3.5,80,0.00,CLR,,0.00,WeatherDisplay:10.37,2013-02-26 13:37:00,
2013-02-26 08:42:00,29.8,24.1,30.13,ENE,68,2.4,2.4,79,0.00,CLR,,0.00,WeatherDisplay:10.37,2013-02-26 13:42:00,
2013-02-26 08:47:00,30.6,24.8,30.13,East,90,2.3,2.3,79,0.00,CLR,,0.00,WeatherDisplay:10.37,2013-02-26 13:47:00,
2013-02-26 08:52:00,31.6,25.6,30.13,SSE,158,3.5,3.5,78,0.00,CLR,,0.00,WeatherDisplay:10.37,2013-02-26 13:52:00,
2013-02-26 08:57:00,32.2,25.8,30.13,ENE,68,4.6,4.6,77,0.00,CLR,,0.00,WeatherDisplay:10.37,2013-02-26 13:57:00,
2013-02-26 09:02:00,33.4,26.4,30.13,ESE,112,4.6,4.6,75,0.00,CLR,,0.00,WeatherDisplay:10.37,2013-02-26 14:02:00,
2013-02-26 09:07:00,34.2,26.4,30.13,East,90,4.6,4.6,73,0.00,CLR,,0.00,WeatherDisplay:10.37,2013-02-26 14:07:00,
2013-02-26 09:12:00,34.7,26.3,30.13,SSE,158,8.1,8.1,71,0.00,CLR,,0.00,WeatherDisplay:10.37,2013-02-26 14:12:00,
2013-02-26 09:17:00,35.1,26.3,30.13,NNE,22,4.6,4.9,70,0.00,CLR,,0.00,WeatherDisplay:10.37,2013-02-26 14:17:00,
2013-02-26 09:22:00,35.8,26.6,30.12,East,90,6.9,6.9,69,0.00,CLR,,0.00,WeatherDisplay:10.37,2013-02-26 14:22:00,
2013-02-26 09:27:00,36.3,26.8,30.12,NE,45,10.7,10.7,68,0.00,CLR,,0.00,WeatherDisplay:10.37,2013-02-26 14:27:00,
2013-02-26 09:32:00,37.0,26.4,30.12,ENE,68,10.4,10.4,65,0.00,CLR,,0.00,WeatherDisplay:10.37,2013-02-26 14:32:00,
2013-02-26 09:37:00,37.2,26.5,30.12,SE,135,5.8,6.0,65,0.00,CLR,,0.00,WeatherDisplay:10.37,2013-02-26 14:37:00,
2013-02-26 09:42:00,38.3,27.2,30.11,ESE,112,8.1,8.1,64,0.00,CLR,,0.00,WeatherDisplay:10.37,2013-02-26 14:42:00,
2013-02-26 09:47:00,38.7,27.1,30.11,ENE,68,4.6,5.1,63,0.00,CLR,,0.00,WeatherDisplay:10.37,2013-02-26 14:47:00,
2013-02-26 09:52:00,39.4,27.4,30.11,SE,135,5.8,5.8,62,0.00,CLR,,0.00,WeatherDisplay:10.37,2013-02-26 14:52:00,
2013-02-26 09:57:00,39.9,27.9,30.11,SE,135,4.6,4.6,62,0.00,CLR,,0.00,WeatherDisplay:10.37,2013-02-26 14:57:00,
2013-02-26 10:02:00,40.1,27.7,30.09,East,90,8.1,8.1,61,0.00,CLR,,0.00,WeatherDisplay:10.37,2013-02-26 15:02:00,
2013-02-26 10:07:00,40.1,27.7,30.09,ENE,68,4.6,4.8,61,0.00,CLR,,0.00,WeatherDisplay:10.37,2013-02-26 15:07:00,
2013-02-26 10:12:00,40.6,27.8,30.09,SE,135,6.9,6.9,60,0.00,CLR,,0.00,WeatherDisplay:10.37,2013-02-26 15:12:00,
2013-02-26 10:17:00,41.0,27.8,30.08,SE,135,11.7,11.7,59,0.00,CLR,,0.00,WeatherDisplay:10.37,2013-02-26 15:17:00,
2013-02-26 10:22:00,40.8,27.2,30.08,SE,135,10.1,10.1,58,0.00,CLR,,0.00,WeatherDisplay:10.37,2013-02-26 15:22:00,
2013-02-26 10:27:00,41.2,27.1,30.08,SE,135,9.2,9.2,57,0.00,CLR,,0.00,WeatherDisplay:10.37,2013-02-26 15:27:00,
2013-02-26 10:32:00,41.2,27.1,30.08,SE,135,11.5,11.5,57,0.00,CLR,,0.00,WeatherDisplay:10.37,2013-02-26 15:32:00,
2013-02-26 10:37:00,41.4,27.7,30.07,SSE,158,16.1,16.1,58,0.00,CLR,,0.00,WeatherDisplay:10.37,2013-02-26 15:37:00,
2013-02-26 10:42:00,41.4,27.3,30.07,ENE,68,10.4,10.4,57,0.00,CLR,,0.00,WeatherDisplay:10.37,2013-02-26 15:42:00,
2013-02-26 10:47:00,41.2,27.1,30.07,SE,135,6.9,6.9,57,0.00,CLR,,0.00,WeatherDisplay:10.37,2013-02-26 15:47:00,
2013-02-26 10:52:00,41.2,27.1,30.07,SE,135,12.8,12.8,57,0.00,CLR,,0.00,WeatherDisplay:10.37,2013-02-26 15:52:00,
2013-02-26 10:57:00,41.5,27.4,30.06,SE,135,8.5,8.5,57,0.00,CLR,,0.00,WeatherDisplay:10.37,2013-02-26 15:57:00,
2013-02-26 11:02:00,41.5,27.4,30.06,ESE,112,9.2,9.2,57,0.00,CLR,,0.00,WeatherDisplay:10.37,2013-02-26 16:02:00,
2013-02-26 11:07:00,41.9,27.8,30.06,East,90,10.1,10.1,57,0.00,CLR,,0.00,WeatherDisplay:10.37,2013-02-26 16:07:00,
2013-02-26 11:12:00,42.3,27.7,30.06,East,90,10.4,10.4,56,0.00,CLR,,0.00,WeatherDisplay:10.37,2013-02-26 16:12:00,
2013-02-26 11:17:00,42.6,28.0,30.06,East,90,10.4,10.4,56,0.00,CLR,,0.00,WeatherDisplay:10.37,2013-02-26 16:17:00,
2013-02-26 11:22:00,42.4,27.4,30.06,East,90,18.4,18.4,55,0.00,CLR,,0.00,WeatherDisplay:10.37,2013-02-26 16:22:00,
2013-02-26 11:27:00,42.6,28.0,30.06,ESE,112,8.1,8.1,56,0.00,CLR,,0.00,WeatherDisplay:10.37,2013-02-26 16:27:00,
2013-02-26 11:32:00,42.8,27.7,30.06,East,90,6.9,6.9,55,0.00,CLR,,0.00,WeatherDisplay:10.37,2013-02-26 16:32:00,
2013-02-26 11:37:00,43.0,27.9,30.04,ENE,68,5.8,6.1,55,0.00,CLR,,0.00,WeatherDisplay:10.37,2013-02-26 16:37:00,
2013-02-26 11:42:00,43.0,27.5,30.04,ESE,112,9.2,9.2,54,0.00,CLR,,0.00,WeatherDisplay:10.37,2013-02-26 16:42:00,
2013-02-26 11:47:00,43.0,27.0,30.04,ESE,112,9.2,9.2,53,0.00,CLR,,0.00,WeatherDisplay:10.37,2013-02-26 16:47:00,
2013-02-26 11:52:00,43.0,27.0,30.04,East,90,9.2,9.2,53,0.00,CLR,,0.00,WeatherDisplay:10.37,2013-02-26 16:52:00,
2013-02-26 11:57:00,43.2,27.2,30.03,East,90,9.2,9.2,53,0.00,CLR,,0.00,WeatherDisplay:10.37,2013-02-26 16:57:00,
2013-02-26 12:02:00,43.3,27.3,30.03,SSE,158,13.8,13.8,53,0.00,CLR,,0.00,WeatherDisplay:10.37,2013-02-26 17:02:00,
2013-02-26 12:07:00,43.3,27.3,30.03,ENE,68,8.1,8.1,53,0.00,CLR,,0.00,WeatherDisplay:10.37,2013-02-26 17:07:00,
2013-02-26 12:12:00,43.3,27.3,30.03,East,90,9.2,9.2,53,0.00,CLR,,0.00,WeatherDisplay:10.37,2013-02-26 17:12:00,
2013-02-26 12:17:00,43.3,26.9,30.02,SE,135,12.8,12.8,52,0.00,CLR,,0.00,WeatherDisplay:10.37,2013-02-26 17:17:00,
2013-02-26 12:22:00,43.7,27.7,30.02,East,90,9.2,9.2,53,0.00,CLR,,0.00,WeatherDisplay:10.37,2013-02-26 17:22:00,
2013-02-26 12:27:00,43.7,27.7,30.02,SE,135,8.1,8.1,53,0.00,CLR,,0.00,WeatherDisplay:10.37,2013-02-26 17:27:00,
2013-02-26 12:32:00,44.2,28.2,30.02,SE,135,5.8,5.8,53,0.00,CLR,,0.00,WeatherDisplay:10.37,2013-02-26 17:32:00,
2013-02-26 12:37:00,44.4,28.3,30.01,SE,135,5.8,5.8,53,0.00,CLR,,0.00,WeatherDisplay:10.37,2013-02-26 17:37:00,
2013-02-26 12:42:00,44.8,28.2,30.01,ENE,68,9.2,9.2,52,0.00,CLR,,0.00,WeatherDisplay:10.37,2013-02-26 17:42:00,
2013-02-26 12:48:00,44.8,27.7,30.01,ESE,112,15.9,15.9,51,0.00,CLR,,0.00,WeatherDisplay:10.37,2013-02-26 17:48:00,
2013-02-26 12:53:00,44.8,27.7,30.01,East,90,10.4,10.4,51,0.00,CLR,,0.00,WeatherDisplay:10.37,2013-02-26 17:53:00,
2013-02-26 12:58:00,44.8,27.7,29.99,ESE,112,13.8,13.8,51,0.00,CLR,,0.00,WeatherDisplay:10.37,2013-02-26 17:58:00,
2013-02-26 13:03:00,44.8,27.7,29.99,ENE,68,11.5,11.5,51,0.00,CLR,,0.00,WeatherDisplay:10.37,2013-02-26 18:03:00,
2013-02-26 13:08:00,44.8,27.7,29.99,ENE,68,8.4,8.4,51,0.00,CLR,,0.00,WeatherDisplay:10.37,2013-02-26 18:08:00,
2013-02-26 13:13:00,44.8,27.7,29.99,NE,45,8.1,8.1,51,0.00,CLR,,0.00,WeatherDisplay:10.37,2013-02-26 18:13:00,
2013-02-26 13:18:00,44.8,27.3,29.98,SE,135,8.1,8.1,50,0.00,CLR,,0.00,WeatherDisplay:10.37,2013-02-26 18:18:00,
2013-02-26 13:23:00,44.6,27.6,29.98,East,90,6.9,6.9,51,0.00,CLR,,0.00,WeatherDisplay:10.37,2013-02-26 18:23:00,
2013-02-26 13:28:00,44.8,27.7,29.98,NE,45,7.1,7.1,51,0.00,CLR,,0.00,WeatherDisplay:10.37,2013-02-26 18:28:00,
2013-02-26 13:33:00,45.0,27.9,29.98,East,90,12.7,12.7,51,0.00,CLR,,0.00,WeatherDisplay:10.37,2013-02-26 18:33:00,
2013-02-26 13:38:00,45.0,28.4,29.96,East,90,6.9,6.9,52,0.00,CLR,,0.00,WeatherDisplay:10.37,2013-02-26 18:38:00,
2013-02-26 13:43:00,45.0,27.9,29.96,ESE,112,8.3,8.3,51,0.00,CLR,,0.00,WeatherDisplay:10.37,2013-02-26 18:43:00,
2013-02-26 13:48:00,45.0,27.9,29.96,SE,135,9.2,9.2,51,0.00,CLR,,0.00,WeatherDisplay:10.37,2013-02-26 18:48:00,
2013-02-26 13:53:00,44.6,27.6,29.96,ESE,112,11.5,11.5,51,0.00,CLR,,0.00,WeatherDisplay:10.37,2013-02-26 18:53:00,
2013-02-26 13:58:00,44.4,27.4,29.97,East,90,6.9,6.9,51,0.00,CLR,,0.00,WeatherDisplay:10.37,2013-02-26 18:58:00,
2013-02-26 14:03:00,44.4,27.9,29.97,ESE,112,8.1,8.1,52,0.00,CLR,,0.00,WeatherDisplay:10.37,2013-02-26 19:03:00,
2013-02-26 14:08:00,44.4,27.9,29.97,East,90,10.4,10.4,52,0.00,CLR,,0.00,WeatherDisplay:10.37,2013-02-26 19:08:00,
2013-02-26 14:13:00,44.4,27.9,29.97,East,90,6.9,6.9,52,0.00,CLR,,0.00,WeatherDisplay:10.37,2013-02-26 19:13:00,
2013-02-26 14:18:00,44.6,28.0,29.95,East,90,5.8,5.8,52,0.00,CLR,,0.00,WeatherDisplay:10.37,2013-02-26 19:18:00,
2013-02-26 14:23:00,44.8,28.2,29.95,East,90,10.4,10.4,52,0.00,CLR,,0.00,WeatherDisplay:10.37,2013-02-26 19:23:00,
2013-02-26 14:28:00,44.6,28.0,29.95,ENE,68,6.9,6.9,52,0.00,CLR,,0.00,WeatherDisplay:10.37,2013-02-26 19:28:00,
2013-02-26 14:33:00,44.8,28.7,29.95,ENE,68,8.1,8.1,53,0.00,CLR,,0.00,WeatherDisplay:10.37,2013-02-26 19:33:00,
2013-02-26 14:38:00,44.6,28.0,29.95,SE,135,9.2,9.2,52,0.00,CLR,,0.00,WeatherDisplay:10.37,2013-02-26 19:38:00,
2013-02-26 14:43:00,44.4,28.3,29.95,SE,135,5.8,5.8,53,0.00,CLR,,0.00,WeatherDisplay:10.37,2013-02-26 19:43:00,
2013-02-26 14:48:00,44.6,28.5,29.95,East,90,6.9,6.9,53,0.00,CLR,,0.00,WeatherDisplay:10.37,2013-02-26 19:48:00,
2013-02-26 14:53:00,44.4,28.3,29.95,ENE,68,4.6,4.6,53,0.00,CLR,,0.00,WeatherDisplay:10.37,2013-02-26 19:53:00,
2013-02-26 14:58:00,44.2,28.2,29.95,ESE,112,10.4,10.4,53,0.00,CLR,,0.00,WeatherDisplay:10.37,2013-02-26 19:58:00,
2013-02-26 15:03:00,44.2,28.2,29.95,ESE,112,9.2,9.2,53,0.00,CLR,,0.00,WeatherDisplay:10.37,2013-02-26 20:03:00,
2013-02-26 15:08:00,44.1,28.0,29.95,ESE,112,5.8,5.8,53,0.00,CLR,,0.00,WeatherDisplay:10.37,2013-02-26 20:08:00,
2013-02-26 15:13:00,44.1,28.0,29.95,East,90,5.8,5.8,53,0.00,CLR,,0.00,WeatherDisplay:10.37,2013-02-26 20:13:00,
2013-02-26 15:18:00,43.9,27.8,29.93,ESE,112,11.5,11.5,53,0.00,CLR,,0.00,WeatherDisplay:10.37,2013-02-26 20:18:00,
2013-02-26 15:23:00,43.7,27.7,29.93,NE,45,6.9,6.9,53,0.00,CLR,,0.00,WeatherDisplay:10.37,2013-02-26 20:23:00,
2013-02-26 15:28:00,43.7,27.7,29.93,SE,135,8.1,8.1,53,0.00,CLR,,0.00,WeatherDisplay:10.37,2013-02-26 20:28:00,
2013-02-26 15:33:00,43.3,27.3,29.93,ESE,112,5.8,5.8,53,0.00,CLR,,0.00,WeatherDisplay:10.37,2013-02-26 20:33:00,
2013-02-26 15:38:00,43.2,27.2,29.92,ESE,112,9.2,9.2,53,0.00,CLR,,0.00,WeatherDisplay:10.37,2013-02-26 20:38:00,
2013-02-26 15:43:00,43.0,27.0,29.92,ESE,112,10.4,10.4,53,0.00,CLR,,0.00,WeatherDisplay:10.37,2013-02-26 20:43:00,
2013-02-26 15:48:00,43.0,27.0,29.92,ESE,112,15.0,15.0,53,0.00,CLR,,0.00,WeatherDisplay:10.37,2013-02-26 20:48:00,
2013-02-26 15:53:00,42.8,26.8,29.92,SE,135,11.5,11.5,53,0.00,CLR,,0.00,WeatherDisplay:10.37,2013-02-26 20:53:00,
2013-02-26 15:58:00,42.6,27.1,29.91,ENE,68,8.1,8.1,54,0.00,CLR,,0.00,WeatherDisplay:10.37,2013-02-26 20:58:00,
2013-02-26 16:03:00,42.6,27.1,29.91,ENE,68,6.9,6.9,54,0.00,CLR,,0.00,WeatherDisplay:10.37,2013-02-26 21:03:00,
2013-02-26 16:08:00,42.6,27.1,29.91,SE,135,9.2,9.2,54,0.00,CLR,,0.00,WeatherDisplay:10.37,2013-02-26 21:08:00,
2013-02-26 16:13:00,42.4,27.0,29.91,ESE,112,6.9,6.9,54,0.00,CLR,,0.00,WeatherDisplay:10.37,2013-02-26 21:13:00,
2013-02-26 16:18:00,42.3,26.8,29.90,ESE,112,6.9,6.9,54,0.00,CLR,,0.00,WeatherDisplay:10.37,2013-02-26 21:18:00,
2013-02-26 16:23:00,42.3,26.8,29.90,ESE,112,9.2,9.2,54,0.00,CLR,,0.00,WeatherDisplay:10.37,2013-02-26 21:23:00,
2013-02-26 16:28:00,42.1,26.6,29.90,SSE,158,17.3,17.3,54,0.00,CLR,,0.00,WeatherDisplay:10.37,2013-02-26 21:28:00,
2013-02-26 16:33:00,41.9,26.4,29.90,SE,135,9.2,9.2,54,0.00,CLR,,0.00,WeatherDisplay:10.37,2013-02-26 21:33:00,
2013-02-26 16:38:00,41.9,26.4,29.89,ESE,112,15.0,15.0,54,0.00,CLR,,0.00,WeatherDisplay:10.37,2013-02-26 21:38:00,
2013-02-26 16:43:00,41.7,26.3,29.89,ENE,68,4.6,6.6,54,0.00,CLR,,0.00,WeatherDisplay:10.37,2013-02-26 21:43:00,
2013-02-26 16:48:00,41.5,26.6,29.89,SSE,158,4.6,4.6,55,0.00,CLR,,0.00,WeatherDisplay:10.37,2013-02-26 21:48:00,
2013-02-26 16:53:00,41.5,26.6,29.89,ESE,112,6.9,6.9,55,0.00,CLR,,0.00,WeatherDisplay:10.37,2013-02-26 21:53:00,
2013-02-26 16:58:00,41.5,26.6,29.90,East,90,8.1,8.1,55,0.00,CLR,,0.00,WeatherDisplay:10.37,2013-02-26 21:58:00,
2013-02-26 17:03:00,41.4,26.8,29.90,ENE,68,5.8,5.8,56,0.00,CLR,,0.00,WeatherDisplay:10.37,2013-02-26 22:03:00,
2013-02-26 17:09:00,41.2,26.7,29.90,SE,135,13.8,13.8,56,0.00,CLR,,0.00,WeatherDisplay:10.37,2013-02-26 22:09:00,
2013-02-26 17:14:00,41.2,26.7,29.90,ENE,68,10.4,10.4,56,0.00,CLR,,0.00,WeatherDisplay:10.37,2013-02-26 22:14:00,
2013-02-26 17:19:00,41.2,27.1,29.90,SE,135,11.5,11.5,57,0.00,CLR,,0.00,WeatherDisplay:10.37,2013-02-26 22:19:00,
2013-02-26 17:24:00,40.8,27.2,29.90,SE,135,8.1,8.1,58,0.00,CLR,,0.00,WeatherDisplay:10.37,2013-02-26 22:24:00,
2013-02-26 17:29:00,40.1,28.1,29.90,East,90,4.6,4.7,62,0.00,CLR,,0.00,WeatherDisplay:10.37,2013-02-26 22:29:00,
2013-02-26 17:34:00,39.9,28.3,29.90,SE,135,9.2,9.2,63,0.00,CLR,,0.00,WeatherDisplay:10.37,2013-02-26 22:34:00,
2013-02-26 17:39:00,39.2,28.8,29.89,NE,45,11.5,11.5,66,0.00,CLR,,0.00,WeatherDisplay:10.37,2013-02-26 22:39:00,
2013-02-26 17:44:00,38.5,28.8,29.89,ESE,112,10.4,10.4,68,0.00,CLR,,0.00,WeatherDisplay:10.37,2013-02-26 22:44:00,
2013-02-26 17:49:00,38.1,28.8,29.89,NE,45,4.6,4.6,69,0.00,CLR,,0.00,WeatherDisplay:10.37,2013-02-26 22:49:00,
2013-02-26 17:54:00,37.9,29.0,29.89,East,90,5.8,5.8,70,0.00,CLR,,0.00,WeatherDisplay:10.37,2013-02-26 22:54:00,
2013-02-26 17:59:00,37.4,29.5,29.89,ESE,112,5.8,5.8,73,0.03,RA,,0.03,WeatherDisplay:10.37,2013-02-26 22:59:00,
2013-02-26 18:04:00,37.2,29.7,29.89,ENE,68,5.8,5.8,74,0.03,RA,,0.03,WeatherDisplay:10.37,2013-02-26 23:04:00,
2013-02-26 18:09:00,36.9,29.7,29.89,East,90,4.6,4.6,75,0.03,,,0.03,WeatherDisplay:10.37,2013-02-26 23:09:00,
2013-02-26 18:14:00,36.5,29.7,29.89,ESE,112,3.5,3.5,76,0.03,CLR,,0.03,WeatherDisplay:10.37,2013-02-26 23:14:00,
2013-02-26 18:19:00,36.5,30.0,29.87,NE,45,4.6,4.6,77,0.03,CLR,,0.03,WeatherDisplay:10.37,2013-02-26 23:19:00,
2013-02-26 18:24:00,36.3,29.8,29.87,NNE,22,9.2,9.2,77,0.03,CLR,,0.03,WeatherDisplay:10.37,2013-02-26 23:24:00,
2013-02-26 18:29:00,36.1,29.9,29.87,SE,135,6.9,6.9,78,0.03,CLR,,0.03,WeatherDisplay:10.37,2013-02-26 23:29:00,
2013-02-26 18:34:00,36.1,29.9,29.87,East,90,2.3,3.0,78,0.06,RA,,0.06,WeatherDisplay:10.37,2013-02-26 23:34:00,
2013-02-26 18:39:00,36.0,30.1,29.86,ENE,68,5.8,5.8,79,0.06,RA,,0.06,WeatherDisplay:10.37,2013-02-26 23:39:00,
2013-02-26 18:44:00,35.8,29.9,29.86,East,90,10.4,10.4,79,0.06,CLR,,0.06,WeatherDisplay:10.37,2013-02-26 23:44:00,
2013-02-26 18:49:00,35.8,30.2,29.86,ENE,68,3.5,4.0,80,0.06,CLR,,0.06,WeatherDisplay:10.37,2013-02-26 23:49:00,
2013-02-26 18:54:00,35.6,30.0,29.86,ENE,68,5.8,5.8,80,0.06,CLR,,0.06,WeatherDisplay:10.37,2013-02-26 23:54:00,
2013-02-26 18:59:00,35.6,30.0,29.85,East,90,6.9,6.9,80,0.03,CLR,,0.06,WeatherDisplay:10.37,2013-02-26 23:59:00,
2013-02-26 19:04:00,35.6,30.3,29.85,ENE,68,6.9,6.9,81,0.06,RA,,0.08,WeatherDisplay:10.37,2013-02-27 00:04:00,
2013-02-26 19:09:00,35.4,30.2,29.85,SSE,158,2.3,3.7,81,0.06,RA,,0.08,WeatherDisplay:10.37,2013-02-27 00:09:00,
2013-02-26 19:14:00,35.4,30.2,29.85,ESE,112,4.6,4.6,81,0.06,,,0.11,WeatherDisplay:10.37,2013-02-27 00:14:00,
2013-02-26 19:19:00,35.2,30.0,29.83,NE,45,7.2,7.2,81,0.08,RA,,0.11,WeatherDisplay:10.37,2013-02-27 00:19:00,
2013-02-26 19:24:00,35.2,30.0,29.83,SSW,202,5.8,5.8,81,0.08,RA,,0.11,WeatherDisplay:10.37,2013-02-27 00:24:00,
2013-02-26 19:29:00,35.1,30.1,29.83,NE,45,4.6,4.6,82,0.11,RA,,0.14,WeatherDisplay:10.37,2013-02-27 00:29:00,
2013-02-26 19:34:00,35.1,30.1,29.83,NE,45,6.9,6.9,82,0.11,RA,,0.17,WeatherDisplay:10.37,2013-02-27 00:34:00,
2013-02-26 19:39:00,35.1,30.1,29.83,SE,135,5.8,5.8,82,0.11,RA,,0.17,WeatherDisplay:10.37,2013-02-27 00:39:00,
2013-02-26 19:44:00,35.1,30.1,29.83,East,90,3.5,3.6,82,0.14,RA,,0.19,WeatherDisplay:10.37,2013-02-27 00:44:00,
2013-02-26 19:49:00,35.1,30.1,29.83,East,90,4.6,4.6,82,0.17,RA,,0.22,WeatherDisplay:10.37,2013-02-27 00:49:00,
2013-02-26 19:54:00,35.1,30.4,29.83,East,90,6.9,6.9,83,0.19,RA,,0.25,WeatherDisplay:10.37,2013-02-27 00:54:00,
2013-02-26 19:59:00,35.1,30.4,29.82,ESE,112,4.6,4.6,83,0.19,RA,,0.25,WeatherDisplay:10.37,2013-02-27 00:59:00,
2013-02-26 20:04:00,35.1,30.4,29.82,NW,315,8.1,8.1,83,0.19,RA,,0.28,WeatherDisplay:10.37,2013-02-27 01:04:00,
2013-02-26 20:09:00,35.1,30.4,29.82,ENE,68,2.3,3.5,83,0.19,RA,,0.28,WeatherDisplay:10.37,2013-02-27 01:09:00,
2013-02-26 20:14:00,35.1,30.4,29.82,ESE,112,4.6,4.6,83,0.22,RA,,0.30,WeatherDisplay:10.37,2013-02-27 01:14:00,
2013-02-26 20:19:00,35.1,30.4,29.84,ENE,68,2.3,2.3,83,0.19,RA,,0.30,WeatherDisplay:10.37,2013-02-27 01:19:00,
2013-02-26 20:24:00,35.1,30.4,29.84,ENE,68,2.3,2.3,83,0.22,RA,,0.33,WeatherDisplay:10.37,2013-02-27 01:24:00,
2013-02-26 20:29:00,35.1,30.4,29.84,NNE,22,2.3,2.3,83,0.19,RA,,0.33,WeatherDisplay:10.37,2013-02-27 01:29:00,
2013-02-26 20:34:00,35.1,30.4,29.84,ENE,68,3.0,3.0,83,0.19,RA,,0.36,WeatherDisplay:10.37,2013-02-27 01:34:00,
2013-02-26 20:39:00,35.1,30.4,29.85,East,90,2.6,2.6,83,0.22,RA,,0.39,WeatherDisplay:10.37,2013-02-27 01:39:00,
2013-02-26 20:44:00,35.1,30.4,29.85,ESE,112,2.3,2.3,83,0.19,RA,,0.39,WeatherDisplay:10.37,2013-02-27 01:44:00,
2013-02-26 20:49:00,35.1,30.4,29.85,ESE,112,2.3,2.3,83,0.19,RA,,0.41,WeatherDisplay:10.37,2013-02-27 01:49:00,
2013-02-26 20:54:00,35.1,30.4,29.85,East,90,2.3,2.3,83,0.17,RA,,0.41,WeatherDisplay:10.37,2013-02-27 01:54:00,
2013-02-26 20:59:00,35.1,30.4,29.87,SE,135,2.3,2.3,83,0.19,RA,,0.44,WeatherDisplay:10.37,2013-02-27 01:59:00,
2013-02-26 21:04:00,35.1,30.4,29.87,ENE,68,2.3,2.3,83,0.17,RA,,0.44,WeatherDisplay:10.37,2013-02-27 02:04:00,
2013-02-26 21:09:00,35.2,30.6,29.87,ENE,68,6.9,6.9,83,0.17,,,0.44,WeatherDisplay:10.37,2013-02-27 02:09:00,
2013-02-26 21:14:00,35.1,30.7,29.87,ENE,68,3.6,3.6,84,0.17,RA,,0.47,WeatherDisplay:10.37,2013-02-27 02:14:00,
2013-02-26 21:19:00,35.1,30.7,29.84,ENE,68,4.6,4.6,84,0.19,RA,,0.50,WeatherDisplay:10.37,2013-02-27 02:19:00,
2013-02-26 21:25:00,34.6,30.2,29.84,East,88,3.0,5.0,84,0.00,RA,,0.52,WeatherDisplay:10.37,2013-02-27 02:25:00,
2013-02-26 21:30:00,34.3,30.0,29.84,ESE,112,4.6,4.6,84,0.22,RA,,0.55,WeatherDisplay:10.37,2013-02-27 02:30:00,
2013-02-26 21:35:00,34.3,30.0,29.84,East,92,2.0,4.0,84,0.03,RA,,0.58,WeatherDisplay:10.37,2013-02-27 02:35:00,
2013-02-26 21:40:00,34.5,30.2,29.81,SSW,202,4.6,4.6,84,0.19,RA,,0.58,WeatherDisplay:10.37,2013-02-27 02:40:00,
2013-02-26 21:45:00,34.5,30.2,29.81,ENE,68,5.8,5.8,84,0.19,RA,,0.58,WeatherDisplay:10.37,2013-02-27 02:45:00,
2013-02-26 21:50:00,34.7,30.4,29.81,East,86,2.0,5.0,84,0.03,RA,,0.61,WeatherDisplay:10.37,2013-02-27 02:50:00,
2013-02-26 21:55:00,34.3,30.0,29.81,ESE,112,5.8,5.8,84,0.19,RA,,0.61,WeatherDisplay:10.37,2013-02-27 02:55:00,
2013-02-26 22:00:00,34.3,30.0,29.80,ESE,105,3.0,7.0,84,0.03,RA,,0.63,WeatherDisplay:10.37,2013-02-27 03:00:00,
2013-02-26 22:05:00,34.3,30.0,29.80,ESE,112,7.4,7.4,84,0.22,RA,,0.66,WeatherDisplay:10.37,2013-02-27 03:05:00,
2013-02-26 22:10:00,34.3,30.0,29.80,East,90,4.9,4.9,84,0.25,RA,,0.69,WeatherDisplay:10.37,2013-02-27 03:10:00,
2013-02-26 22:15:00,34.5,30.2,29.80,East,93,3.0,6.0,84,0.03,RA,,0.72,WeatherDisplay:10.37,2013-02-27 03:15:00,
2013-02-26 22:20:00,34.5,30.2,29.80,ENE,68,8.1,8.1,84,0.22,RA,,0.72,WeatherDisplay:10.37,2013-02-27 03:20:00,
2013-02-26 22:25:00,34.7,30.4,29.80,ENE,68,4.6,4.6,84,0.22,RA,,0.74,WeatherDisplay:10.37,2013-02-27 03:25:00,
2013-02-26 22:30:00,34.8,30.4,29.80,ENE,68,5.0,7.0,84,0.00,RA,,0.74,WeatherDisplay:10.37,2013-02-27 03:30:00,
2013-02-26 22:35:00,35.1,30.7,29.80,ENE,68,4.6,4.6,84,0.19,,,0.74,WeatherDisplay:10.37,2013-02-27 03:35:00,
2013-02-26 22:40:00,35.2,30.9,29.77,East,85,5.0,12.0,84,0.00,CLR,,0.74,WeatherDisplay:10.37,2013-02-27 03:40:00,
2013-02-26 22:45:00,35.2,30.9,29.77,East,83,5.0,9.0,84,0.00,CLR,,0.74,WeatherDisplay:10.37,2013-02-27 03:45:00,
2013-02-26 22:50:00,35.4,31.1,29.77,ESE,112,8.1,8.1,84,0.19,RA,,0.77,WeatherDisplay:10.37,2013-02-27 03:50:00,
2013-02-26 22:55:00,35.6,31.2,29.77,East,94,2.0,6.0,84,0.00,RA,,0.77,WeatherDisplay:10.37,2013-02-27 03:55:00,
2013-02-26 23:00:00,35.6,31.2,29.75,East,90,8.1,8.1,84,0.17,,,0.77,WeatherDisplay:10.37,2013-02-27 04:00:00,
2013-02-26 23:05:00,35.4,31.1,29.75,East,90,5.8,5.8,84,0.11,CLR,,0.77,WeatherDisplay:10.37,2013-02-27 04:05:00,
2013-02-26 23:10:00,35.4,31.1,29.75,East,89,5.0,7.0,84,0.00,CLR,,0.77,WeatherDisplay:10.37,2013-02-27 04:10:00,
2013-02-26 23:15:00,35.4,31.1,29.75,East,90,6.9,6.9,84,0.08,CLR,,0.77,WeatherDisplay:10.37,2013-02-27 04:15:00,
2013-02-26 23:20:00,35.4,31.1,29.73,ENE,68,6.9,6.9,84,0.08,RA,,0.80,WeatherDisplay:10.37,2013-02-27 04:20:00,
2013-02-26 23:25:00,35.4,31.1,29.73,East,90,8.1,8.1,84,0.06,RA,,0.80,WeatherDisplay:10.37,2013-02-27 04:25:00,
2013-02-26 23:30:00,35.2,30.9,29.73,ESE,112,6.9,6.9,84,0.06,,,0.80,WeatherDisplay:10.37,2013-02-27 04:30:00,
2013-02-26 23:35:00,35.2,30.9,29.73,ESE,112,9.2,9.2,84,0.06,CLR,,0.80,WeatherDisplay:10.37,2013-02-27 04:35:00,
2013-02-26 23:40:00,35.1,30.7,29.71,ESE,112,9.2,9.2,84,0.06,CLR,,0.80,WeatherDisplay:10.37,2013-02-27 04:40:00,
2013-02-26 23:45:00,35.1,30.7,29.71,East,90,13.8,13.8,84,0.06,CLR,,0.80,WeatherDisplay:10.37,2013-02-27 04:45:00,
2013-02-26 23:50:00,35.1,31.0,29.71,East,90,4.6,4.6,85,0.03,CLR,,0.80,WeatherDisplay:10.37,2013-02-27 04:50:00,
2013-02-26 23:55:00,35.1,31.0,29.71,ENE,68,6.9,6.9,85,0.06,RA,,0.83,WeatherDisplay:10.37,2013-02-27 04:55:00,